STARLINK-1772 (46678 NORAD) Tracking and Keplerian Element Data
This shows tracking and keplerian element data for the satellite.
Feedback or suggestion? Click here.
Element | Value |
Catalog | 46678 |
Name | STARLINK-1772 |
Epoch Orbit | 1160 |
Epoch Day | 362.54227016 |
Epoch Year | 2020 |
RAAN | 115.7885 |
Inclination | 53.0395 |
Eccentricity | 0.0007438 |
Argument of Perigee | 121.1149 |
Mean Anonmoly | 327.316 |
Mean Motion | 16.45355 |
Decay Rate | 0.41226016 |
L1 | 1 46678U 20073J 20362.54227016 .41226016 12449-4 10634-2 0 9995 |
L2 | 2 46678 53.0395 115.7885 0007438 121.1149 327.3160 16.45355000 11603 |
Live tracking and technical data element details for STARLINK-1772 (NORAD 46678). STARLINK-1772 can be tracked NOW for your location showing map with azimuth and elevation plus other details from your city location.
Track the satellite on the map from your city or location and see movement details for azimuth, elevation, latitude, longitude, range, height, and movement on the map or in text.
IsCatalogInMostPopularTable: catalog: 46678, numindb: 23
Update: records affected: 1
GetName: 46678 STARLINK-1772
Hit Count: updated at: Tue, 19 Jan 2021 01:23:54 GMT